RH
15 15 16 17 18 18 18 18 17 16 14 12 11 11 10 10 10 12 11 9 7 5 6 6 6 8 9 8 8 5 4 7 9 13 12 11 17 15 11 9 5 2 6 9 11 26 33 32 41 41 34 29 31 36 37 42 41 55 81 88 81 82 82 68 72 77 65 71 80 79 73 66 69 72 65 56 54 51 47 44 38 36 42 50 51 51 54 56
14 12 13 16 17 17 17 17 15 13 11 10 10 10 11 13 15 14 11 10 7 6 4 3 4 5 7 7 7 6 4 6 9 11 13 14 15 9 4 4 2 3 6 8 13 28 34 32 37 33 26 26 30 33 38 42 42 51 66 79 84 77 74 68 66 67 61 68 75 74 70 63 66 69 64 60 56 49 44 38 35 38 46 51 50 52 54 55
16 12 11 14 16 17 17 15 12 11 10 12 13 16 20 22 22 17 15 16 15 12 6 3 4 3 5 6 6 7 3 7 17 18 19 21 16 6 2 2 2 3 5 10 18 29 33 32 29 25 23 24 29 34 38 42 46 49 53 72 80 69 71 72 64 62 63 65 69 74 72 65 62 62 63 59 52 45 38 35 37 44 48 50 50 52 54 54
20 13 11 13 14 15 15 13 12 13 16 20 24 28 29 28 27 21 20 21 21 19 10 4 3 3 4 4 7 5 5 17 30 33 27 23 16 6 3 1 2 3 5 15 26 29 30 28 22 21 21 20 25 32 36 43 54 55 53 61 65 68 73 72 67 63 64 66 67 71 71 68 61 63 63 53 50 44 35 35 40 45 48 49 50 51 52 52
22 15 12 13 13 13 14 16 18 22 26 29 30 30 28 27 27 25 25 25 25 23 16 7 2 5 3 4 8 3 12 25 30 37 32 22 16 8 3 1 2 2 6 22 32 28 26 23 20 19 17 18 21 25 34 44 54 57 53 52 59 72 71 67 72 68 65 67 66 68 67 66 65 67 63 52 50 43 35 37 42 45 47 49 49 50 51 49
23 17 13 13 17 19 22 25 27 29 28 27 26 24 23 22 21 22 24 25 27 26 22 13 4 5 3 5 6 4 21 27 23 34 27 18 17 9 2 1 2 2 11 27 32 28 24 20 19 18 15 16 15 23 40 43 53 63 57 54 58 63 65 69 77 72 68 68 68 70 66 63 66 68 64 57 53 42 37 39 41 45 46 48 47 48 48 45
24 20 16 17 23 27 30 30 28 26 23 22 21 20 20 19 20 20 21 22 24 26 25 19 9 4 4 6 5 12 29 27 26 33 19 13 15 7 2 1 2 4 15 28 30 27 23 20 20 17 14 14 12 27 46 45 55 65 56 59 60 58 67 74 78 75 71 67 67 69 66 62 61 66 65 61 55 44 40 40 41 45 44 45 46 45 46 42
26 22 18 20 25 28 31 28 24 22 21 21 20 21 21 19 21 20 21 21 20 24 25 23 15 7 4 3 12 28 31 23 29 34 19 14 14 6 1 2 2 4 19 30 29 26 23 20 20 17 13 13 17 28 44 50 55 54 52 64 65 64 74 77 79 79 74 70 67 64 63 62 59 63 64 58 54 46 40 41 41 42 42 43 43 43 42 39
27 24 20 21 24 26 28 26 23 21 21 22 22 23 21 20 21 22 23 19 18 21 23 24 17 12 6 2 19 33 25 19 25 32 25 15 12 7 1 3 2 5 24 33 28 24 22 21 18 16 12 11 17 24 41 51 48 46 54 65 68 72 81 82 82 81 77 74 67 63 67 68 63 64 66 58 51 46 39 40 40 40 41 41 41 40 38 37
28 26 22 21 23 25 26 26 24 21 21 23 23 23 21 22 23 23 21 18 17 18 22 24 17 16 10 11 31 29 19 20 20 29 33 20 13 7 3 8 7 10 26 30 25 22 20 21 17 14 12 11 14 22 39 46 42 50 60 66 72 78 83 85 84 79 79 80 71 65 70 73 70 69 71 60 47 43 39 38 39 38 38 38 38 37 37 37
27 27 25 21 21 24 25 26 25 21 21 23 24 23 23 24 25 23 20 21 21 20 23 22 18 17 9 19 39 25 13 18 15 26 34 23 14 7 5 13 12 13 24 25 21 19 18 20 16 12 11 12 17 24 33 38 44 55 60 69 78 81 85 88 88 83 80 83 76 66 71 79 79 75 67 54 44 40 37 36 36 35 36 36 36 37 36 36
26 26 26 23 21 21 23 24 24 22 21 23 23 22 23 24 25 22 21 26 25 25 25 21 19 14 10 27 37 19 10 13 16 26 29 22 18 13 11 14 12 12 19 21 17 15 16 17 15 12 10 12 19 24 26 35 50 57 56 69 79 81 87 88 86 85 80 81 76 67 75 82 75 67 57 49 43 38 36 35 34 34 35 34 35 37 37 35
25 26 25 24 22 19 20 21 21 21 21 22 21 22 24 25 26 21 22 28 26 24 21 18 16 10 22 36 24 10 10 10 16 24 25 22 21 19 18 17 13 12 16 18 16 14 14 15 14 12 11 11 17 24 26 34 50 57 56 65 76 81 86 86 86 86 81 81 78 71 82 84 65 55 52 47 43 38 36 34 33 34 33 33 35 36 36 36
21 25 25 24 23 20 19 19 20 21 21 21 20 22 23 25 26 20 23 28 24 21 16 15 12 13 39 41 13 6 9 10 18 22 23 21 19 19 18 16 13 13 16 16 16 15 13 14 14 12 12 12 15 23 25 28 42 55 61 66 73 81 83 83 86 87 81 79 79 76 85 89 68 53 51 47 43 39 36 34 33 34 33 34 35 36 35 36
18 21 24 25 23 21 20 20 21 21 21 21 19 22 23 26 26 21 24 27 24 18 12 18 17 21 46 37 11 9 6 10 19 20 21 18 16 16 14 13 12 14 17 17 18 15 14 13 13 12 11 13 16 23 23 27 43 52 57 65 70 80 86 83 81 82 79 74 77 78 80 85 73 57 52 47 44 40 35 33 33 33 34 34 35 36 35 36
16 17 21 24 23 22 20 20 21 21 21 20 20 23 23 26 26 21 24 26 23 15 14 32 36 37 43 24 9 13 13 18 20 18 19 16 15 14 13 13 12 15 17 18 18 15 16 14 13 12 10 13 16 23 24 28 50 52 49 69 79 85 91 85 79 79 77 71 73 76 74 79 74 58 53 50 44 41 35 33 32 32 33 33 35 35 35 36
16 15 18 20 22 22 20 20 21 20 20 19 21 22 23 28 25 21 25 26 23 15 15 31 40 41 34 14 9 16 18 19 17 17 18 17 17 13 13 12 10 13 14 16 16 14 16 14 13 11 9 13 13 21 26 29 55 58 51 70 78 82 91 86 83 81 79 76 72 68 65 68 64 55 54 52 45 41 36 33 31 31 33 33 34 35 35 35
14 15 15 17 21 21 20 21 20 20 19 19 22 22 26 29 21 19 26 26 31 30 21 24 35 37 25 13 12 14 14 14 16 18 17 18 19 15 12 10 9 11 12 13 13 12 14 12 11 10 9 12 12 19 27 33 55 62 60 67 62 66 81 81 80 78 80 86 76 64 65 64 58 55 56 53 48 42 37 34 32 31 32 33 34 34 34 34
12 15 14 15 18 20 21 20 19 19 18 20 22 22 32 36 25 23 25 30 44 40 23 25 34 27 16 12 12 12 14 14 16 18 18 19 19 16 12 9 9 9 9 10 10 9 11 11 10 11 10 12 13 16 22 32 50 61 67 67 55 57 71 72 71 69 74 90 82 64 67 67 59 57 55 54 51 42 37 35 32 32 32 31 33 34 33 33
10 13 14 14 15 18 20 20 20 19 18 21 22 25 35 36 29 28 29 36 44 28 12 16 19 13 10 12 12 13 14 13 15 17 18 19 18 17 14 11 9 8 8 7 8 8 8 11 11 11 11 10 11 13 16 25 39 52 59 60 57 62 76 78 73 70 71 84 84 68 65 66 62 59 55 55 52 43 39 37 33 33 32 30 31 32 33 33
9 11 13 14 14 16 18 19 19 18 19 20 21 29 32 22 19 23 24 28 27 15 10 12 11 10 10 11 11 12 12 12 14 17 18 17 17 16 14 13 10 7 7 6 6 8 8 12 10 8 9 9 10 11 14 20 26 39 48 56 65 69 79 81 76 78 77 80 84 74 66 64 60 57 54 56 55 45 38 37 35 35 34 30 30 31 33 33
8 9 11 13 13 14 15 17 19 17 19 19 22 31 28 18 17 21 20 20 16 11 12 11 10 12 11 12 13 11 12 12 13 16 17 16 16 16 13 12 10 7 6 5 6 7 9 10 8 8 7 8 9 9 15 19 21 35 44 55 69 72 79 85 80 80 80 82 86 79 74 74 68 62 58 58 58 51 43 40 36 35 36 32 30 33 33 32
8 7 9 11 12 13 14 16 17 16 18 20 24 28 23 19 20 21 21 20 18 13 10 9 9 10 10 12 12 11 12 12 13 15 15 14 15 15 13 10 10 9 6 5 6 8 10 9 7 7 7 8 9 9 16 18 22 36 43 53 70 74 82 93 90 83 79 78 81 81 84 89 87 81 74 67 66 65 59 54 46 36 37 35 30 34 34 32
7 7 7 9 10 12 12 14 15 17 20 22 25 25 21 20 21 22 22 20 18 13 9 9 8 9 10 10 12 13 13 13 14 15 14 14 14 13 12 10 10 9 7 6 5 6 8 7 6 6 6 8 8 10 17 20 23 33 37 46 67 76 77 86 89 85 82 79 78 83 93 97 94 94 87 78 78 77 68 65 61 44 36 38 34 34 35 33
6 6 6 7 9 10 11 14 16 19 22 23 25 23 20 21 22 24 23 21 20 12 9 10 8 9 11 10 12 13 12 12 13 14 14 13 13 12 10 9 10 10 7 5 5 6 5 6 6 6 7 7 8 11 17 22 23 31 37 41 61 78 76 78 84 85 88 92 85 81 94 99 94 94 90 81 81 81 77 74 70 54 40 38 36 35 36 34
6 6 6 6 7 10 12 17 25 24 19 18 20 20 19 21 23 25 25 24 20 11 8 10 7 8 10 10 11 12 12 12 12 14 14 13 13 13 12 9 8 9 7 5 5 5 4 6 5 6 8 6 9 14 18 22 20 27 39 38 51 71 75 76 79 81 85 89 84 76 88 98 96 94 89 82 78 78 81 78 72 67 57 45 36 37 38 35
6 5 6 6 6 9 12 20 29 25 19 17 17 18 18 20 23 25 29 29 18 8 7 8 7 8 8 8 9 11 14 13 13 13 12 12 13 13 14 10 8 8 7 6 7 6 4 6 5 7 9 7 10 15 17 21 19 23 32 36 48 63 70 73 74 78 76 75 79 77 81 94 94 85 80 81 82 79 81 79 74 74 69 55 41 37 39 37
6 5 6 6 5 7 10 16 21 20 20 19 18 18 18 21 23 24 33 33 16 7 8 7 8 8 6 8 7 9 13 13 12 11 10 12 13 13 13 11 8 8 7 7 8 6 4 5 6 8 10 9 12 15 15 17 18 18 18 25 45 54 54 59 69 75 68 66 80 80 76 85 87 75 72 80 86 86 85 79 77 76 71 63 50 41 40 39
8 7 7 6 5 7 9 11 14 18 20 19 19 20 18 21 23 23 34 33 13 6 10 7 8 9 6 8 8 7 10 11 12 14 12 12 12 12 13 12 10 7 7 8 7 5 3 5 8 10 11 12 12 12 12 14 16 15 11 13 28 44 51 56 61 63 61 66 72 70 68 76 86 83 79 89 90 83 80 77 77 77 71 64 55 46 42 41
11 9 8 5 5 7 10 13 16 18 20 20 22 21 20 20 21 28 36 26 9 7 9 7 7 8 6 7 8 7 9 9 11 14 13 11 11 11 13 13 11 9 8 8 8 7 5 5 9 10 11 11 10 10 10 13 14 13 14 12 14 30 42 48 53 57 67 74 60 54 59 64 80 87 80 85 83 69 70 77 79 77 70 67 62 53 46 45
13 12 8 5 6 8 13 22 24 22 22 23 23 21 21 20 22 33 30 13 7 9 7 7 7 6 6 7 7 7 7 7 10 14 14 12 12 10 12 14 12 11 11 10 10 8 7 7 9 9 10 9 8 10 11 13 13 12 15 16 16 21 25 39 63 68 70 74 56 46 53 57 70 77 69 69 67 58 62 70 74 72 70 69 64 55 48 48
15 12 8 5 6 8 17 27 27 24 23 24 25 22 21 25 27 29 19 7 11 11 6 7 7 6 6 6 7 7 6 7 8 11 12 12 12 9 11 13 12 12 13 13 11 8 7 8 10 10 10 9 8 10 13 13 13 14 16 17 24 33 40 54 71 69 66 71 64 53 59 70 72 64 58 59 57 55 54 56 62 66 68 69 64 56 49 47
15 10 6 5 7 12 19 26 26 23 22 25 26 21 22 30 27 17 9 7 10 9 6 7 6 6 7 7 8 6 7 8 6 8 11 11 12 10 9 10 10 12 14 13 11 9 8 8 10 12 10 9 9 9 16 18 14 15 17 18 26 40 57 62 54 57 66 68 69 63 64 82 83 64 54 49 46 50 48 48 57 61 64 67 64 58 50 47
14 9 6 5 9 16 19 22 22 19 23 27 23 20 26 30 21 10 9 9 7 6 7 7 7 7 8 8 8 7 8 9 6 7 10 9 12 12 10 9 8 9 12 13 11 8 9 11 11 12 10 9 10 9 13 16 14 15 14 16 23 29 46 53 47 61 71 63 72 75 68 85 94 75 59 46 39 44 44 46 53 56 59 62 64 61 53 48
11 7 7 9 12 18 19 19 18 18 25 27 20 22 29 24 14 9 11 9 6 7 7 7 7 8 9 9 8 7 9 10 9 9 10 8 11 13 11 11 9 9 12 15 14 9 9 11 9 10 10 8 11 10 10 12 14 16 13 14 22 21 27 38 43 60 62 52 69 78 68 78 81 66 59 55 48 42 40 45 52 56 60 62 65 63 54 49
13 10 9 14 18 21 20 17 18 23 27 25 22 26 24 15 10 9 9 8 8 7 7 8 9 9 11 11 9 10 9 9 10 12 12 10 11 13 12 12 10 9 11 13 15 14 13 12 7 9 10 7 10 10 8 12 14 14 15 15 17 15 19 29 35 42 39 38 57 65 61 64 62 56 56 57 57 51 43 45 50 55 61 63 64 63 57 51
27 27 18 21 24 23 23 21 23 30 28 23 26 27 16 9 10 8 8 9 7 7 8 11 13 11 12 12 11 11 10 11 12 13 14 12 13 13 11 11 10 9 10 11 13 14 15 15 9 8 10 8 9 9 7 10 11 12 16 15 13 14 18 25 31 33 31 36 49 51 53 63 64 59 54 53 64 65 51 45 49 54 61 63 62 62 60 53
33 36 27 24 22 20 21 23 26 29 26 22 27 25 12 7 9 7 8 8 6 8 9 11 13 12 12 13 13 11 11 13 14 14 16 14 14 14 11 11 11 9 9 10 12 12 12 15 12 8 10 9 7 9 9 9 8 10 12 11 14 21 24 28 32 35 36 40 45 37 43 69 72 55 52 61 72 72 59 48 49 53 58 61 60 61 62 59
26 33 29 21 18 17 18 22 25 24 22 23 24 20 10 7 9 8 8 7 7 9 10 11 12 11 11 12 12 10 10 13 14 15 19 19 16 14 12 11 11 10 9 9 11 12 12 16 15 10 8 9 9 10 11 10 8 9 10 9 12 18 24 30 30 30 34 47 56 47 46 65 62 46 56 75 75 66 56 46 45 50 54 59 61 63 65 62
23 26 24 19 17 17 17 20 21 19 20 22 18 12 7 7 9 9 8 7 6 8 10 10 12 12 13 12 11 11 10 12 14 14 17 17 15 14 12 11 12 11 10 9 10 12 12 14 17 13 8 9 11 11 10 10 9 10 12 12 12 13 19 26 26 22 29 48 64 64 62 60 49 46 60 68 67 63 53 46 47 50 53 58 61 63 66 67
30 25 19 18 18 16 16 18 18 17 18 16 11 7 7 9 8 7 8 7 6 8 9 9 11 12 13 13 13 12 11 11 12 12 13 13 14 16 13 11 13 12 12 12 11 12 13 15 18 16 11 10 10 8 9 8 8 10 11 11 12 13 17 25 27 21 21 34 43 47 59 59 46 50 54 47 56 68 60 50 49 51 56 57 57 62 70 75
28 24 19 17 17 16 14 14 15 15 12 10 9 7 7 9 7 5 6 6 6 7 8 9 10 11 13 13 13 13 12 12 11 11 13 12 13 14 13 13 13 12 13 14 11 12 15 17 21 19 15 13 10 7 8 7 7 8 9 9 10 11 15 20 24 21 19 26 25 24 45 56 46 51 56 48 56 70 64 52 47 51 57 54 57 68 73 77
21 20 18 17 17 16 13 13 15 13 8 7 8 7 6 6 5 5 6 6 7 7 7 9 9 11 13 13 12 12 12 14 14 11 12 12 11 11 12 13 13 12 13 14 13 15 17 18 21 22 18 14 12 9 7 7 7 7 7 8 8 9 12 12 14 17 18 23 23 25 46 59 51 54 63 60 63 68 63 54 48 52 57 56 64 73 73 82
22 19 18 17 18 16 13 14 15 14 11 8 7 6 6 6 5 7 7 6 7 7 7 9 9 11 11 10 12 12 13 17 17 14 14 13 10 10 11 11 12 11 12 15 16 16 19 20 23 26 25 19 15 12 9 7 7 8 6 6 8 8 9 9 10 14 19 22 22 25 39 50 49 53 62 67 73 75 68 60 54 55 58 60 69 74 75 86
25 23 19 17 16 14 12 12 13 14 12 10 9 8 7 7 7 7 7 6 6 5 6 8 9 9 8 9 12 12 12 15 15 16 17 14 10 10 10 10 10 11 14 18 18 15 20 23 25 31 32 25 23 23 19 12 7 7 6 5 7 7 7 10 10 14 21 20 17 22 35 48 52 53 59 66 74 79 76 67 59 56 59 63 70 76 80 87
24 20 15 14 13 11 10 10 10 11 11 10 11 10 8 7 8 9 7 6 7 7 6 7 8 8 9 10 12 13 13 13 13 17 18 16 13 11 10 10 9 12 16 18 16 16 20 23 24 31 33 28 30 31 24 15 9 8 6 5 7 6 7 10 8 14 20 14 19 37 49 54 54 52 59 65 68 77 84 79 67 57 58 64 73 82 86 90
21 20 16 14 15 13 10 10 9 9 8 8 10 10 8 8 9 10 7 6 9 8 6 6 7 8 10 12 13 15 16 14 14 17 16 17 18 14 11 10 10 14 16 13 14 16 20 23 24 27 28 25 25 23 19 16 13 10 6 6 8 6 7 9 7 14 17 14 35 58 55 50 51 52 65 72 69 76 83 83 78 68 60 63 72 83 88 91
16 17 16 12 14 13 10 10 9 8 7 7 8 9 9 8 9 9 8 8 9 7 6 9 9 8 9 11 13 16 18 19 19 20 20 20 19 17 15 12 10 13 13 10 12 15 19 24 23 22 23 20 17 17 17 15 13 13 10 7 7 6 7 9 7 11 10 16 48 63 50 52 57 54 66 74 69 72 77 78 81 77 68 64 67 77 82 84
20 19 20 20 22 16 11 11 9 8 9 8 9 9 9 9 9 8 9 9 9 9 8 9 11 11 10 10 12 15 18 21 24 25 23 21 18 18 22 21 14 11 10 11 13 15 20 23 22 21 22 20 18 17 16 14 13 14 11 7 7 7 7 6 5 7 7 16 45 58 54 62 63 53 60 68 67 71 73 75 80 80 77 73 68 70 73 73
29 26 29 33 33 23 14 13 10 9 10 10 11 10 9 10 9 8 9 9 10 13 11 8 10 12 10 9 11 12 14 19 23 25 23 22 21 19 23 27 20 13 11 13 14 17 21 25 23 22 24 24 21 17 15 13 13 15 15 16 18 20 21 19 10 6 7 15 35 53 63 69 65 57 60 64 64 67 66 70 80 83 83 83 78 74 74 76
31 30 34 35 32 27 19 14 12 12 11 11 11 10 9 9 9 8 9 8 9 12 12 10 11 11 9 9 10 10 11 14 17 19 19 20 20 18 22 26 20 15 15 15 16 18 21 25 26 26 29 27 21 24 27 21 16 20 27 33 37 38 41 40 30 24 24 25 33 48 62 68 65 61 61 61 61 63 63 67 78 85 86 88 90 90 88 87
42 38 44 41 32 28 23 16 14 13 12 10 10 9 10 9 8 8 11 12 11 10 10 10 11 11 11 12 12 11 12 11 11 13 15 15 15 15 18 19 14 13 15 15 17 18 18 23 28 34 38 30 21 26 33 32 33 38 39 39 44 48 48 47 44 42 41 38 39 48 56 59 59 57 58 63 67 70 73 74 79 89 93 91 93 97 94 89
Wind_Speed
13 13 13 13 13 13 12 11 11 11 10 10 10 10 10 10 11 11 11 12 12 12 12 11 10 9 9 9 9 9 9 10 9 10 11 6 7 13 13 12 10 8 7 6 8 9 12 13 12 12 11 12 12 12 10 8 9 4 2 1 2 2 2 1 5 6 7 11 9 11 12 11 11 9 11 12 12 15 15 13 15 19 21 22 24 26 25 24
14 14 13 13 13 13 12 12 11 11 11 10 11 11 11 12 12 11 12 12 12 12 12 12 10 8 8 8 8 8 9 9 11 14 12 8 9 12 12 12 12 10 7 7 10 12 12 12 10 11 11 12 12 10 6 6 6 3 1 2 1 0 3 3 7 10 9 13 13 12 13 12 13 14 14 11 11 15 14 15 21 24 24 25 26 26 24 23
15 14 13 13 13 13 12 12 12 11 11 12 12 12 12 12 11 11 12 12 13 13 13 12 10 9 8 8 7 7 8 9 12 14 9 7 9 10 10 11 11 11 8 8 10 12 12 10 9 10 12 12 10 7 6 4 3 2 0 1 1 1 3 2 9 12 12 17 16 13 14 12 13 15 13 12 14 15 13 18 23 26 27 27 27 25 24 23
15 14 13 13 13 12 12 12 12 12 12 12 12 11 11 11 11 11 12 13 15 15 14 13 11 9 8 7 6 5 8 10 7 3 2 5 7 8 10 9 10 11 9 10 11 12 11 11 10 10 12 12 10 10 7 3 2 3 2 1 3 3 2 4 10 13 16 17 15 14 14 13 13 11 11 16 14 10 14 21 24 27 30 29 27 26 24 22
15 14 13 12 12 12 12 12 12 12 12 11 11 11 11 12 12 12 12 13 15 15 15 13 11 9 7 6 6 6 6 5 2 3 3 7 9 9 8 8 8 10 10 12 11 12 12 13 11 11 11 10 11 9 3 3 2 5 2 5 7 8 5 8 11 14 17 15 14 14 13 14 12 6 9 14 10 9 16 22 25 29 30 29 28 27 24 22
14 14 12 11 11 11 11 11 11 11 11 11 12 12 12 13 13 13 12 13 13 14 15 14 12 9 7 6 6 5 4 3 3 2 7 9 10 7 6 8 8 11 12 12 12 13 13 14 12 12 11 9 11 6 1 3 3 6 3 7 5 8 9 11 13 14 16 15 13 12 12 15 14 9 8 8 7 13 19 23 26 27 28 28 27 26 24 22
14 13 12 11 10 10 10 10 11 11 11 12 12 12 13 13 14 14 13 13 12 13 14 14 12 9 7 6 6 4 8 8 2 1 7 10 7 4 6 9 9 13 15 13 14 13 13 14 13 13 10 10 10 3 4 4 5 9 1 8 4 7 12 13 17 16 15 15 13 13 14 14 14 12 9 8 11 17 21 24 26 26 27 27 25 25 23 22
12 12 11 10 9 9 9 9 10 11 11 11 12 12 12 13 13 14 14 14 13 12 13 13 13 10 8 6 5 7 11 7 4 4 9 10 6 3 8 10 11 14 16 14 13 13 13 13 14 12 10 9 5 1 3 2 7 6 3 9 6 10 14 13 16 15 13 14 13 14 14 11 12 12 9 12 16 18 23 26 26 27 26 25 24 24 23 21
10 11 10 9 8 8 8 9 9 11 11 11 12 12 12 12 13 14 14 13 12 12 12 12 12 10 10 6 5 8 5 1 5 7 9 9 5 3 8 9 12 15 14 13 13 14 13 13 14 11 12 9 7 4 8 5 4 5 8 8 8 11 13 12 14 13 11 12 12 13 11 8 11 11 7 14 21 21 25 27 26 26 25 24 24 23 22 21
9 10 9 8 7 8 8 8 9 11 12 12 13 13 13 13 14 14 13 11 11 11 11 11 12 10 10 6 6 7 2 2 5 4 5 7 5 4 7 8 11 14 13 12 12 15 14 12 11 10 12 10 10 8 4 2 4 13 12 12 12 10 11 12 12 12 12 8 8 12 10 8 10 6 2 13 24 24 26 27 26 26 24 24 23 22 21 20
7 8 9 8 7 7 8 8 9 11 12 13 13 13 14 15 14 13 11 10 11 11 11 10 11 10 9 6 10 6 1 3 5 2 4 5 4 4 7 9 12 14 12 12 12 13 14 13 10 9 9 5 8 7 1 4 11 16 14 15 12 9 8 11 10 10 9 4 6 14 13 9 9 6 7 18 25 25 27 27 26 25 24 24 22 21 20 19
6 7 8 8 8 7 8 8 9 11 12 13 14 14 14 15 14 12 9 12 12 10 10 9 9 9 9 8 13 7 4 5 4 2 4 4 4 5 7 9 12 13 12 11 11 12 13 13 12 12 9 6 6 4 2 8 17 13 10 11 10 9 5 7 9 8 6 3 7 15 12 8 8 11 16 22 23 25 27 26 25 24 23 23 22 21 20 19
7 6 7 8 8 8 8 9 10 11 12 13 14 14 14 14 13 10 9 13 12 9 8 7 7 7 7 7 7 6 6 5 4 4 4 5 6 6 8 9 11 13 12 12 10 10 12 13 12 13 12 11 7 3 2 11 18 9 6 7 7 7 1 3 7 7 7 4 6 6 5 7 9 14 19 20 23 25 25 25 25 23 23 23 21 20 20 19
8 7 7 7 7 8 8 8 9 11 12 13 13 14 14 14 12 9 10 13 10 8 6 4 5 4 6 8 4 7 5 4 4 5 5 6 7 7 8 9 11 12 11 12 10 9 11 12 11 12 12 13 11 6 5 8 12 8 6 4 4 5 3 5 4 6 7 4 2 2 3 6 8 14 16 19 23 24 24 24 23 23 23 22 20 20 20 19
9 8 7 7 7 8 8 8 10 11 12 13 13 13 13 13 11 8 10 12 10 7 4 3 5 5 8 9 3 7 1 6 6 7 6 6 7 7 8 9 10 11 10 10 9 8 10 11 10 11 11 12 12 9 8 5 7 6 4 2 3 3 4 5 5 6 3 2 0 2 4 7 6 13 15 18 22 22 23 23 22 23 22 21 21 20 19 18
10 9 8 7 7 8 8 9 9 11 12 13 13 12 12 12 9 7 9 10 8 5 2 3 6 8 9 5 2 3 1 5 6 7 6 6 6 6 8 8 9 10 9 9 7 6 8 10 10 12 12 11 10 7 7 4 5 4 3 2 2 4 5 4 5 3 1 3 2 2 5 7 6 14 17 18 22 21 22 22 22 23 22 21 21 20 19 18
10 10 9 8 7 8 8 9 9 11 12 12 13 12 14 11 6 5 6 7 6 4 4 1 2 8 9 4 3 3 2 1 3 6 7 6 6 5 7 8 10 10 9 10 8 6 7 9 9 9 10 10 8 6 7 5 4 3 1 1 3 6 7 6 4 3 1 1 2 3 6 8 10 15 18 18 21 21 21 22 22 22 22 21 20 20 20 19
10 10 10 9 8 8 8 9 10 11 11 13 13 14 15 9 2 3 5 7 6 6 7 5 4 6 5 4 3 2 0 2 3 6 7 6 5 4 8 8 8 10 10 11 10 9 9 10 9 7 7 8 8 8 7 3 4 3 0 1 4 7 8 8 6 6 5 2 4 7 8 9 12 13 16 18 19 20 20 21 22 21 22 21 19 20 20 19
10 10 10 10 9 8 8 9 10 10 11 12 13 16 16 6 3 2 4 7 5 4 4 5 8 5 3 2 1 1 2 1 3 5 7 7 5 6 9 8 8 11 10 9 10 12 10 8 9 7 6 9 9 10 7 3 8 9 3 3 4 5 5 7 6 8 11 6 5 7 9 11 13 12 14 18 18 20 20 19 21 21 21 21 20 20 21 20
9 10 11 10 9 8 8 9 9 10 10 11 14 17 15 6 3 3 3 7 11 8 7 1 4 8 5 2 1 1 3 4 6 7 7 7 7 8 10 9 9 11 10 8 8 11 11 7 8 8 9 11 10 13 10 5 8 12 8 4 4 4 3 4 6 9 11 7 4 6 9 12 13 11 13 17 18 18 20 18 19 20 21 21 20 21 21 20
9 9 11 11 10 9 9 9 9 9 9 10 13 15 13 11 7 4 9 10 10 3 5 3 4 7 4 6 8 7 5 6 7 7 6 8 9 8 9 10 9 8 9 12 9 10 10 7 9 10 12 13 11 13 10 6 7 10 8 4 4 3 4 5 6 9 8 4 4 6 10 12 11 11 13 15 14 16 21 20 19 20 20 20 20 22 22 19
9 9 10 10 10 9 9 9 9 7 8 8 11 14 11 10 9 9 13 12 5 1 4 3 6 5 1 5 8 5 7 8 6 7 7 9 11 9 9 9 9 7 9 13 9 7 8 8 11 12 12 13 13 12 8 8 8 7 7 5 4 2 5 4 5 8 4 1 6 8 8 8 5 6 9 12 12 12 17 19 20 22 20 20 20 21 23 21
10 9 9 10 11 9 9 9 9 7 5 6 9 13 10 8 9 11 12 13 9 6 5 4 6 2 3 5 1 4 11 8 5 8 8 9 12 11 9 8 9 9 9 11 9 6 7 8 12 14 12 12 14 12 8 8 7 7 7 4 5 4 4 2 5 8 3 1 5 7 4 3 3 3 0 7 8 3 5 8 12 20 21 19 21 22 22 22
11 10 9 10 10 9 8 8 7 6 5 8 10 9 9 9 10 12 12 13 10 4 1 3 3 4 6 5 3 4 11 6 4 7 9 11 12 8 8 8 8 9 9 11 12 10 7 8 13 15 13 12 14 11 7 7 5 7 9 6 7 7 3 1 5 6 3 1 5 7 4 1 2 2 2 5 3 1 4 2 8 16 23 19 19 22 21 22
11 10 9 9 9 8 7 6 5 8 11 15 10 4 7 9 9 11 11 11 8 4 4 1 2 2 4 2 2 5 11 9 8 8 7 13 13 6 6 9 7 9 10 12 12 10 8 10 14 15 14 13 12 8 6 5 6 5 9 10 13 11 6 4 8 7 2 1 6 7 3 1 4 5 5 6 5 3 5 4 10 14 20 21 20 22 22 21
11 11 9 8 8 6 6 6 5 7 11 10 4 3 7 8 10 11 9 7 4 3 7 4 1 3 3 2 1 5 8 4 8 8 5 12 12 7 5 7 8 8 8 7 6 6 7 12 10 10 15 15 11 7 7 7 8 3 10 14 14 14 12 9 10 6 2 2 6 7 2 2 4 7 7 7 7 7 5 7 11 11 11 19 21 22 23 22
12 11 9 8 8 6 7 7 7 8 9 5 3 7 8 9 11 10 7 5 0 0 1 4 3 2 1 1 2 5 3 5 8 7 5 9 9 8 8 6 6 6 6 4 5 5 10 15 10 9 14 12 9 7 9 11 7 2 11 17 17 16 15 14 10 5 3 4 5 6 2 2 4 8 10 9 9 9 8 8 11 11 11 17 20 22 24 23
12 11 8 8 8 7 8 9 9 11 11 9 7 9 8 10 12 8 6 3 4 1 2 5 4 2 2 1 4 5 1 2 2 4 2 7 9 10 9 7 7 8 5 5 4 7 12 13 7 7 9 6 7 8 11 13 6 4 6 10 17 18 15 13 9 4 4 5 5 7 5 2 3 6 10 10 9 10 12 11 11 13 15 17 19 21 24 24
12 10 8 8 7 7 8 9 10 9 7 9 10 10 10 12 10 6 5 3 1 1 2 3 3 2 3 5 6 4 3 5 1 1 3 7 10 12 10 9 8 9 7 6 7 7 8 5 3 4 6 4 7 10 12 13 6 4 5 5 10 18 15 12 9 4 5 4 4 10 10 4 2 5 8 8 9 11 12 11 11 15 20 21 22 22 24 25
11 8 8 7 6 6 6 8 7 8 8 10 12 12 13 12 8 7 4 2 1 3 2 2 3 2 4 7 6 2 4 7 2 3 8 6 9 11 10 11 10 8 6 7 11 12 7 6 8 6 7 8 11 11 8 9 5 3 2 6 6 11 13 11 7 5 4 3 4 10 13 8 2 3 8 8 10 13 12 10 11 16 20 23 25 25 24 25
10 8 8 7 6 6 7 6 3 7 8 10 13 14 13 8 5 7 3 2 2 2 1 2 3 2 6 6 4 2 3 4 5 4 6 4 6 7 9 9 7 8 6 5 9 12 10 8 8 5 10 11 13 11 7 10 9 3 3 7 6 6 6 4 4 4 3 3 3 7 14 12 4 2 8 11 11 13 14 13 14 18 21 24 27 25 25 26
9 8 7 6 7 9 9 6 4 5 8 10 13 13 10 5 4 5 2 1 2 4 5 3 5 6 2 1 2 4 3 2 6 5 3 4 6 6 7 7 3 5 6 5 7 9 10 7 7 4 11 12 13 10 8 6 8 6 5 8 6 4 2 2 3 3 3 1 1 2 9 9 5 3 8 15 13 12 17 17 18 22 23 25 26 25 26 27
9 7 5 5 8 10 8 6 6 7 10 11 13 11 8 5 3 3 4 2 2 3 5 2 4 7 4 2 3 3 3 1 2 5 5 3 5 6 8 8 7 7 4 5 7 8 8 5 6 6 8 12 15 8 8 5 7 8 7 7 6 3 3 5 5 3 2 2 3 3 4 2 3 4 10 17 17 14 18 20 22 26 27 27 27 25 26 27
8 6 4 5 9 9 7 5 6 8 10 11 11 8 6 6 3 2 3 6 6 3 3 2 5 7 4 3 5 3 3 2 4 5 6 5 5 6 7 8 11 8 4 6 7 8 8 7 10 11 7 11 14 9 7 7 7 8 8 7 7 5 4 4 2 1 3 2 5 2 2 2 2 3 9 9 13 16 20 21 21 24 27 29 28 24 25 27
5 3 3 6 7 7 5 5 7 8 9 11 10 6 5 5 3 3 5 6 5 7 6 2 6 7 1 1 6 5 3 3 6 8 5 3 3 3 3 5 7 5 5 6 5 5 9 7 11 16 12 12 13 12 10 8 7 8 8 7 7 5 4 4 3 6 5 2 5 4 4 2 2 2 6 6 4 8 16 20 20 22 25 27 28 26 25 27
2 0 3 5 5 5 5 6 7 6 8 11 7 4 6 3 3 5 6 6 7 8 9 6 4 4 3 2 5 4 4 2 4 6 7 2 1 2 3 4 2 3 6 5 5 5 5 8 7 16 14 13 15 15 12 9 5 4 7 9 7 5 4 5 3 8 8 5 3 4 4 4 4 3 2 2 5 4 8 17 20 23 26 27 29 28 26 27
1 3 4 5 6 6 6 7 7 5 8 9 5 5 7 3 3 5 5 7 9 5 7 7 3 4 4 1 3 1 2 2 3 4 4 2 2 2 3 4 1 6 9 4 5 4 3 10 5 12 11 11 16 16 14 13 9 3 5 7 7 5 3 4 4 5 7 5 3 4 4 4 3 2 4 4 1 4 5 13 18 21 25 27 28 29 27 26
6 8 9 8 7 6 7 8 7 9 10 8 7 8 8 2 4 6 7 7 9 5 5 5 3 3 3 2 3 2 1 1 1 2 2 0 1 3 4 3 2 4 11 6 4 3 3 8 2 10 11 10 13 12 11 14 15 9 4 3 5 6 3 3 3 4 5 4 2 4 5 3 2 2 5 5 3 7 10 13 16 19 22 25 27 28 26 23
8 10 11 10 8 5 7 8 8 12 10 7 8 5 4 2 3 4 6 7 6 5 5 5 2 2 3 2 4 2 2 3 2 0 1 1 0 1 4 5 2 2 9 6 3 4 5 7 2 6 9 8 9 8 8 10 12 10 6 4 6 5 3 3 3 4 4 1 1 0 3 2 3 3 8 6 7 12 14 13 14 19 24 26 26 26 25 24
9 11 9 12 10 5 6 7 10 11 8 8 9 2 1 3 2 1 4 7 7 4 4 6 3 2 3 4 5 3 2 3 2 1 1 1 2 3 3 4 2 3 8 6 6 7 6 5 4 5 7 6 7 8 8 9 10 9 7 7 7 6 6 5 5 5 3 2 2 2 0 1 3 3 7 12 13 11 13 14 13 18 23 23 25 25 25 25
11 12 6 13 10 6 6 8 10 10 8 9 8 2 3 7 6 3 2 3 6 2 2 6 4 3 4 4 4 4 2 2 2 2 1 1 1 1 1 2 3 5 7 6 7 5 3 3 5 4 5 6 7 9 10 12 10 10 9 8 7 6 8 7 6 6 5 3 3 3 1 1 2 3 2 9 11 4 10 13 14 17 19 21 22 22 24 26
13 9 6 13 10 6 8 9 9 11 8 3 2 2 4 4 7 7 3 3 4 1 1 4 3 3 6 4 2 4 4 2 1 1 1 1 1 2 3 1 5 6 6 7 5 5 6 3 5 7 6 8 12 8 13 14 14 13 12 10 8 7 7 7 6 5 5 4 4 3 2 2 1 4 1 1 5 6 8 12 13 16 18 19 19 20 24 23
14 7 7 11 9 8 10 9 8 11 6 3 2 1 4 2 7 3 3 3 2 2 3 4 2 2 4 3 3 4 2 2 5 4 2 2 1 4 3 2 4 5 4 6 3 6 6 3 3 7 9 10 16 11 12 14 14 13 12 12 10 9 9 8 6 4 3 3 2 0 0 1 1 1 4 8 7 2 10 13 15 16 17 18 18 21 25 19
15 14 6 9 8 9 10 8 6 9 6 2 4 3 3 3 5 3 6 5 3 3 4 5 3 2 3 2 4 6 0 1 6 5 4 5 2 5 1 2 2 4 2 2 4 4 3 3 2 5 7 6 8 8 9 12 9 9 9 12 13 12 13 11 9 3 3 3 3 2 1 3 2 1 7 12 6 7 5 10 14 14 16 18 20 25 25 17
15 16 10 11 7 9 11 11 8 10 9 2 3 5 5 6 4 3 7 6 4 6 6 4 4 4 5 3 4 6 2 3 3 4 5 6 1 3 4 2 2 4 3 8 7 6 3 3 3 4 6 6 4 3 3 4 7 8 11 13 16 15 15 12 8 5 4 4 5 3 3 7 7 5 8 12 6 2 4 5 9 12 16 17 19 24 23 18
11 10 7 10 9 10 13 15 13 12 8 2 3 6 6 6 6 5 6 5 3 5 7 5 4 2 4 4 4 5 4 3 1 2 2 3 4 4 2 2 6 2 7 7 5 5 5 4 4 6 8 9 7 8 11 11 7 9 12 15 13 15 14 11 9 6 3 3 3 1 6 10 8 8 9 8 7 6 3 3 4 8 15 17 20 25 26 24
9 8 8 5 5 8 10 14 15 11 7 4 2 4 6 6 4 7 4 3 1 4 7 4 4 4 3 4 5 4 3 3 3 1 1 2 5 8 2 5 7 4 7 3 5 4 5 5 5 8 10 12 13 13 15 15 12 7 9 14 15 12 14 12 13 6 1 1 2 3 9 11 6 8 10 5 2 6 5 2 5 4 11 15 19 25 27 27
9 10 13 8 3 7 7 8 12 11 8 7 3 4 6 7 3 5 5 2 1 4 5 3 4 5 4 5 5 5 4 4 4 5 6 3 4 8 5 7 6 4 2 7 7 5 5 4 6 9 10 12 13 14 15 14 12 13 11 14 16 14 12 14 16 12 6 2 6 9 13 13 5 6 11 7 5 6 6 3 2 2 8 13 17 22 25 25
11 12 14 12 10 11 7 4 5 9 9 6 2 2 4 6 7 6 3 1 3 2 2 5 3 2 5 5 4 4 4 4 2 3 6 6 5 5 5 6 7 5 5 5 2 1 3 4 6 9 9 11 12 13 16 14 12 16 16 13 13 15 15 16 16 15 13 6 14 18 16 15 6 5 10 11 12 11 7 5 5 3 2 9 15 20 21 23
11 11 13 16 16 16 13 9 5 5 5 4 2 4 5 6 10 5 4 3 6 1 0 6 5 3 5 5 3 5 4 4 2 2 1 6 6 3 3 6 9 7 5 4 2 1 1 3 5 7 7 9 12 13 14 16 16 16 13 8 8 9 10 12 11 10 10 5 13 20 16 12 7 6 9 11 13 12 9 8 8 2 2 3 9 14 14 16
12 10 11 12 10 11 12 10 8 6 5 5 5 6 6 7 10 5 4 3 5 4 3 5 4 3 4 4 5 7 4 3 1 4 7 7 5 2 2 6 9 6 2 3 2 1 2 3 5 6 5 8 9 7 9 11 10 5 9 15 17 15 15 14 9 6 7 4 7 14 11 7 6 8 9 9 10 10 9 8 8 6 4 4 9 14 15 14
14 11 9 10 8 8 9 8 8 8 6 6 7 7 6 8 9 5 4 2 5 7 7 6 5 3 5 4 3 3 4 4 5 5 5 6 6 7 10 11 10 6 3 3 2 2 3 4 4 2 3 8 6 7 14 11 2 5 9 14 14 13 13 15 15 17 17 11 2 5 6 6 8 8 8 8 8 8 7 6 7 11 11 9 11 15 15 14
Wind_Direction
15 12 10 9 7 3 2 2 3 2 1 1 2 8 12 14 14 10 4 357 351 343 337 332 324 318 311 311 313 307 300 289 282 271 261 237 219 239 249 250 252 249 232 206 195 206 221 228 238 236 237 242 238 245 244 237 243 229 110 60 356 338 300 203 156 167 149 140 146 161 172 150 135 145 144 139 131 132 137 144 141 131 127 130 133 136 137 138
15 12 12 12 11 10 10 12 13 15 17 20 21 24 23 21 19 16 12 8 1 356 349 339 330 319 306 303 311 309 297 289 278 268 265 251 240 248 255 254 247 235 219 196 195 208 221 225 227 229 234 244 239 230 225 219 231 252 75 72 329 246 292 282 143 145 152 146 148 159 167 154 143 149 149 146 139 140 142 142 134 125 126 132 135 137 139 139
17 15 15 15 15 17 20 21 22 25 29 32 33 31 28 24 21 20 19 15 11 6 358 349 343 328 309 303 306 305 299 297 285 275 269 259 258 254 248 251 242 227 218 200 201 214 224 229 226 228 235 245 242 220 212 195 200 275 45 111 168 140 305 270 136 140 146 146 149 152 157 157 152 152 152 149 143 146 147 138 131 128 134 138 139 140 140 141
20 19 19 19 20 24 28 30 32 35 35 36 36 32 28 23 19 19 17 15 14 10 4 357 351 338 318 307 300 305 307 301 284 257 259 273 286 268 245 244 235 223 211 185 201 229 233 239 238 234 242 252 248 226 213 145 168 236 199 146 125 155 247 131 134 138 140 147 149 145 149 154 154 155 159 154 146 147 145 138 137 138 140 141 142 142 142 143
21 23 24 25 28 33 37 39 40 39 35 32 28 25 21 16 13 12 9 9 10 9 7 360 355 345 325 313 298 305 306 307 103 128 293 297 297 279 244 233 222 217 197 173 209 239 234 241 245 238 244 258 258 243 219 101 265 274 119 107 126 168 189 134 134 138 140 147 145 144 148 148 143 148 165 156 144 142 141 138 141 141 141 143 144 144 143 144
21 24 27 32 37 41 44 43 40 35 29 25 20 18 14 11 7 3 1 359 360 3 5 1 356 346 332 317 298 304 286 313 77 200 292 306 291 275 232 214 204 204 187 182 226 236 229 240 242 239 238 249 259 253 75 91 274 297 90 100 118 164 160 140 141 141 143 145 145 149 147 147 145 147 161 155 136 136 137 139 142 140 142 143 143 144 144 145
21 23 27 34 38 42 42 38 36 30 26 21 16 14 9 6 1 357 356 353 353 356 358 358 354 347 339 318 301 291 256 274 1 262 310 326 303 256 209 198 192 195 184 198 231 227 224 234 234 239 241 247 255 230 44 14 259 266 76 89 84 132 132 139 146 145 144 142 145 146 146 152 146 143 154 152 139 137 138 140 140 140 142 143 144 145 143 145
19 20 25 30 33 35 34 31 30 24 19 16 12 10 4 0 355 352 350 348 348 347 354 355 350 346 334 322 309 280 251 260 1 325 307 319 319 232 205 190 187 191 187 205 227 225 225 232 235 239 243 247 271 178 119 316 250 249 62 91 100 113 117 135 149 150 145 139 144 141 142 149 139 138 148 147 144 142 141 140 141 142 142 144 146 144 144 146
15 18 20 21 23 24 25 23 21 14 10 9 6 4 1 356 351 350 347 343 341 339 349 348 343 341 327 330 313 283 242 104 6 320 301 304 308 235 207 189 188 189 193 214 226 230 227 232 236 237 258 270 306 279 161 194 230 103 77 101 117 115 120 141 153 157 152 143 147 140 136 143 131 124 136 150 149 148 144 142 144 144 143 146 146 146 147 145
11 14 13 11 10 10 14 10 8 5 2 1 0 1 360 356 351 349 344 338 334 333 341 341 339 333 323 329 300 283 144 71 336 322 296 295 285 224 195 187 195 192 203 225 226 229 227 233 242 246 269 277 286 293 108 120 107 102 92 101 113 114 133 153 146 148 150 140 145 141 134 140 137 120 164 159 150 149 146 143 146 145 146 148 146 147 147 143
4 7 7 4 356 357 0 356 357 355 355 356 355 357 356 355 351 347 346 339 332 329 331 332 332 322 324 313 275 280 67 296 308 298 252 260 258 214 183 186 201 200 210 228 226 229 232 237 254 259 265 280 277 284 139 127 98 99 96 97 102 85 117 151 129 126 134 105 133 139 128 133 161 174 168 155 149 150 147 145 148 148 148 148 147 148 145 145
354 359 360 357 351 348 346 345 347 348 350 351 351 354 352 352 350 344 346 342 335 330 323 324 326 319 324 293 259 274 342 306 299 265 226 214 219 197 185 196 205 207 214 229 228 229 237 238 253 263 272 306 295 294 258 123 96 92 100 101 103 75 74 140 126 134 132 101 148 145 132 136 169 159 148 152 152 152 148 148 150 149 148 147 148 148 147 149
346 347 350 353 349 342 340 339 340 343 346 345 348 350 349 351 348 342 342 340 339 336 326 322 323 318 311 289 267 296 301 286 283 240 212 205 203 198 204 211 211 211 219 234 240 232 235 238 249 264 276 288 286 326 344 121 108 102 107 109 118 101 91 121 112 155 154 147 157 149 140 141 146 140 146 155 154 153 150 150 151 149 148 147 149 149 150 150
343 340 340 344 346 341 340 337 337 342 341 340 342 343 347 350 346 341 339 340 343 339 337 329 329 335 290 272 308 327 271 234 255 216 205 209 201 208 212 211 210 211 223 240 252 242 234 238 249 264 267 268 277 304 273 159 125 120 122 134 139 131 171 124 117 175 164 158 135 35 118 142 145 141 151 157 154 157 154 153 153 149 149 150 152 153 151 151
341 337 331 332 342 339 336 338 337 338 338 336 338 339 342 345 343 336 332 343 348 338 347 2 357 349 281 253 277 349 272 202 225 203 204 208 199 212 203 203 208 211 230 237 251 249 232 236 242 252 254 250 258 271 259 204 125 137 161 146 140 149 149 135 162 176 162 179 131 354 134 139 159 152 153 157 159 162 156 156 156 151 152 153 154 155 153 153
335 334 329 327 335 333 333 335 333 335 335 333 334 334 335 339 338 327 332 346 347 337 353 28 5 329 299 282 266 324 214 201 207 188 206 209 205 211 190 195 205 212 230 223 245 260 227 236 241 243 251 244 239 244 250 216 135 171 227 78 118 166 155 157 182 180 232 202 184 274 150 133 164 163 155 158 164 165 160 160 158 154 154 155 156 156 155 158
327 328 326 325 328 329 329 328 329 333 331 330 331 327 328 333 328 326 340 341 332 306 276 191 353 293 279 286 249 219 163 203 200 190 207 216 220 200 177 197 203 206 219 212 234 260 222 228 241 242 242 243 241 233 245 237 161 172 225 146 179 176 160 159 176 185 250 248 188 177 146 133 152 160 156 161 170 168 166 165 160 158 154 156 161 157 158 163
321 319 321 324 322 323 325 322 324 327 328 329 327 322 324 325 301 325 331 327 315 269 263 213 206 273 258 257 259 205 352 287 235 210 201 217 240 200 186 198 196 198 211 214 223 233 220 215 225 236 226 229 240 234 240 235 145 137 357 229 179 168 162 159 170 182 174 196 198 156 131 133 144 157 160 163 173 171 170 168 162 162 156 158 165 158 162 166
317 312 315 319 316 320 322 319 318 321 328 327 325 325 324 310 212 250 335 326 294 258 290 203 213 279 327 285 276 57 328 277 224 219 204 217 222 198 201 198 193 199 205 208 205 208 210 205 217 230 224 218 220 233 239 145 125 130 165 234 169 155 153 153 165 178 168 159 191 164 134 142 148 160 164 162 174 174 172 172 167 165 159 162 169 161 164 169
315 307 308 312 315 317 314 317 317 320 328 328 331 327 323 330 246 214 9 293 255 275 329 338 259 302 330 353 16 309 276 239 233 221 207 216 207 199 202 197 198 203 213 214 186 195 207 211 219 218 227 227 217 230 232 176 143 140 157 198 151 139 130 161 176 174 173 157 179 179 144 148 153 160 166 163 173 176 173 177 174 169 164 167 171 163 165 171
318 304 304 307 310 313 311 314 314 319 326 326 330 320 322 0 356 342 347 289 239 264 328 5 322 294 341 344 306 283 228 210 225 217 201 205 208 204 191 195 205 197 219 228 196 186 206 224 229 218 226 233 230 231 222 206 196 150 141 152 134 130 127 162 182 171 187 180 173 188 156 149 153 162 168 165 174 178 176 179 178 173 170 174 173 163 166 171
324 308 302 302 305 312 309 307 309 318 321 319 322 310 315 0 356 336 330 299 265 262 260 287 288 238 154 317 294 271 223 207 200 198 193 201 213 209 179 191 217 204 206 224 214 184 201 231 235 228 228 235 243 237 207 213 221 143 124 140 130 101 100 125 199 174 179 194 162 177 161 138 137 158 167 176 179 178 179 181 181 177 175 181 174 163 168 171
329 315 306 302 301 309 306 304 306 302 304 315 315 308 320 354 337 328 324 297 283 269 260 318 325 334 345 313 343 208 229 217 179 180 183 206 222 220 206 203 218 221 205 211 220 200 203 224 229 236 234 226 243 242 199 218 227 134 131 137 128 151 113 99 224 178 139 348 150 147 133 84 357 360 69 199 183 156 193 193 194 184 177 186 178 166 173 173
330 320 314 304 298 307 307 300 300 309 322 316 307 305 327 346 332 332 326 293 273 254 338 360 330 10 5 356 74 215 236 225 193 178 178 213 218 207 229 238 221 227 218 206 222 230 228 217 211 231 239 225 237 236 192 215 227 144 144 145 143 144 106 155 194 158 117 56 130 121 97 50 277 278 285 235 186 90 201 225 266 208 181 190 183 170 180 177
328 323 321 307 300 301 300 301 312 330 318 301 299 307 323 336 332 330 322 291 268 204 152 166 257 61 59 107 136 262 261 244 205 166 171 218 222 201 226 242 225 231 225 201 216 236 240 233 208 210 228 226 234 231 178 200 235 179 143 147 154 134 104 165 159 139 136 153 158 157 137 144 222 216 223 227 186 164 177 182 264 232 187 193 189 173 184 181
325 325 323 306 300 287 289 303 290 301 300 285 297 339 328 332 325 326 315 280 268 172 152 151 201 99 106 193 248 288 269 223 147 142 196 222 234 273 263 228 211 235 246 199 210 247 246 252 228 211 227 217 215 218 174 198 247 210 135 140 146 131 127 160 157 144 163 148 184 199 163 126 209 223 219 219 198 184 175 179 225 239 202 201 195 179 185 184
324 326 322 301 293 268 270 282 252 268 307 341 11 331 330 326 319 326 300 264 358 45 139 90 57 27 7 246 277 287 324 62 113 145 229 220 224 265 257 227 207 238 271 216 205 225 236 248 232 228 242 210 195 210 182 208 246 122 143 146 140 137 140 159 171 174 167 129 164 209 222 140 193 214 204 200 201 195 194 194 210 222 216 213 202 185 186 187
324 326 314 292 284 262 259 272 258 267 310 354 343 320 328 320 321 321 284 306 56 328 335 72 64 317 288 211 242 258 351 20 161 141 202 228 224 236 239 244 225 216 238 251 229 187 214 241 225 227 248 190 189 212 190 211 223 132 183 165 143 147 148 161 178 172 162 146 156 188 200 190 177 185 183 186 200 203 201 200 198 202 207 218 218 198 187 188
326 323 303 286 277 267 263 264 263 269 308 333 319 319 320 308 312 290 265 314 351 230 13 76 125 175 219 215 238 269 199 194 221 62 200 228 235 242 265 289 265 226 210 237 247 208 203 223 191 241 258 204 219 222 199 207 201 136 233 244 157 154 151 167 183 154 159 184 188 184 185 196 176 166 171 182 202 205 201 198 193 195 197 207 219 211 192 188
325 315 296 282 263 257 254 250 277 311 320 311 308 316 309 297 290 269 268 332 304 92 58 249 134 143 255 228 220 285 215 178 106 252 221 228 239 237 261 285 280 256 210 205 242 264 272 199 179 213 233 229 243 238 196 186 182 96 219 249 220 178 167 172 168 132 155 208 211 189 186 195 218 176 180 192 209 201 192 190 188 193 195 199 211 211 195 190
321 308 291 276 251 229 233 238 291 319 305 301 311 313 299 281 257 273 320 34 315 39 210 202 104 277 265 238 232 326 255 186 122 188 208 228 230 216 235 246 253 249 219 200 239 263 264 198 163 218 230 230 244 232 165 156 173 167 210 233 241 213 189 166 133 138 193 215 223 195 189 199 224 218 201 209 214 196 187 190 188 191 197 200 207 207 196 193
318 305 286 266 238 214 223 235 223 256 283 304 313 308 291 269 243 270 315 155 231 345 345 14 18 342 346 243 286 14 344 187 143 171 201 234 216 191 219 220 207 234 218 210 220 224 234 193 130 229 232 226 241 219 151 155 185 183 215 230 232 215 201 218 178 191 224 201 341 163 170 197 242 279 228 216 213 199 191 194 187 187 194 198 204 204 197 194
318 302 281 245 220 205 215 238 228 255 295 313 305 292 281 292 301 275 301 356 74 356 320 330 350 341 356 341 350 23 320 13 120 199 192 225 246 199 207 217 220 231 236 252 228 194 215 214 173 220 224 217 241 228 150 179 210 203 220 218 217 209 205 232 209 203 252 121 48 44 116 191 284 291 250 214 202 202 196 194 189 186 190 195 200 203 199 196
313 298 266 222 208 202 213 239 248 275 305 308 291 276 271 291 306 267 318 16 31 326 308 13 325 301 292 322 340 330 287 353 352 275 204 204 261 219 201 228 233 238 285 282 251 199 206 220 196 207 205 196 228 240 185 191 206 214 231 221 221 215 200 247 201 158 273 124 110 153 176 245 234 258 276 226 199 209 200 193 190 185 188 191 197 205 200 195
307 286 229 211 199 203 226 250 266 286 302 294 281 273 278 292 321 340 7 10 341 332 349 338 281 284 270 332 325 1 30 346 342 323 286 226 250 242 239 252 228 230 266 271 284 241 226 230 186 185 193 182 202 235 223 211 209 204 221 225 221 204 193 252 149 148 245 229 137 180 190 221 210 215 303 317 279 229 192 182 182 180 186 188 192 203 201 194
337 243 199 201 206 227 261 270 273 284 285 281 278 277 284 315 357 346 10 348 316 336 331 294 263 307 2 351 313 31 77 324 350 338 316 352 94 235 251 265 248 267 266 256 302 298 258 270 206 176 187 178 190 226 230 222 226 173 206 228 216 190 202 251 190 168 228 256 168 170 157 168 191 175 210 291 318 294 182 179 183 180 183 187 191 198 199 195
223 244 228 221 226 229 247 261 261 258 264 272 280 291 301 1 17 335 2 333 307 306 300 309 11 330 326 16 296 352 83 324 340 310 305 31 26 290 247 254 298 298 292 282 277 291 293 288 246 166 183 177 185 221 225 222 238 180 196 227 206 193 203 253 263 211 227 254 200 163 136 156 191 160 164 168 217 289 229 189 185 181 180 185 191 196 197 196
224 245 249 233 215 205 225 239 238 246 257 265 259 261 276 319 36 358 355 326 303 291 292 326 32 293 308 21 291 288 100 283 323 293 288 10 333 337 309 295 118 270 290 289 245 266 302 289 222 160 193 177 173 216 225 224 241 239 232 241 210 214 203 189 248 248 230 253 229 149 122 142 242 202 158 148 188 230 222 194 182 181 182 187 192 194 195 194
236 255 252 214 186 192 225 231 238 250 255 260 262 250 249 270 57 9 336 322 300 298 321 351 45 264 292 320 292 303 4 328 346 319 267 279 163 162 288 309 86 236 285 291 267 302 303 285 251 185 207 177 163 207 220 209 224 238 255 256 224 219 206 199 236 261 253 288 334 268 117 155 236 165 123 138 207 220 208 193 186 183 184 189 191 190 191 194
249 258 236 183 179 199 216 228 244 251 248 253 265 286 352 321 48 56 336 329 300 284 328 341 354 317 312 311 302 315 335 317 321 284 210 177 166 173 254 307 17 309 306 306 279 281 269 261 270 226 216 216 195 196 218 211 194 206 229 229 218 188 172 215 243 245 242 117 138 251 324 222 230 130 122 164 189 221 214 188 181 185 185 187 189 187 186 192
270 267 211 165 181 204 209 230 242 245 250 257 254 222 13 340 333 321 319 294 285 278 329 317 313 311 313 306 310 321 302 278 280 298 336 163 202 197 211 295 326 320 319 296 267 280 281 271 293 261 210 237 226 181 205 235 210 195 213 222 226 195 171 198 223 224 226 184 195 231 172 180 203 105 128 178 163 201 229 193 175 182 186 189 190 185 183 190
271 265 166 163 185 199 215 238 247 247 255 313 325 134 83 341 295 301 307 238 263 256 237 293 317 343 329 320 329 313 291 301 284 257 32 136 200 63 107 217 280 295 310 282 275 357 359 317 300 292 270 280 283 228 198 229 233 214 214 219 232 230 200 205 214 205 216 215 225 249 173 119 77 104 99 307 103 123 172 178 179 180 183 189 183 178 184 188
259 251 155 168 200 214 228 252 261 256 249 80 345 285 109 232 255 288 338 284 262 265 284 311 335 347 312 292 289 280 249 346 314 307 343 239 180 65 90 194 255 275 298 285 306 19 356 290 275 287 282 287 293 271 195 204 235 232 216 209 223 243 230 232 246 208 203 229 208 328 344 175 319 107 81 29 8 107 150 164 180 176 176 181 172 173 184 177
275 279 225 180 211 224 233 253 256 269 276 165 235 241 132 265 279 325 334 329 337 314 309 324 332 318 296 295 300 297 64 45 297 324 331 274 112 81 256 267 305 281 297 10 3 7 340 293 278 281 278 259 268 264 191 181 216 244 234 207 207 231 236 246 269 243 175 216 188 154 219 160 156 156 83 64 15 293 230 181 174 164 167 169 164 175 181 161
289 280 224 184 212 232 239 256 266 285 294 243 232 235 199 225 238 270 300 302 313 316 316 320 325 312 299 299 284 283 265 223 273 5 335 289 79 118 221 225 285 272 29 40 358 317 308 310 279 263 265 242 224 273 256 203 205 227 246 228 201 207 228 243 256 241 209 217 208 202 174 137 127 130 95 84 99 261 279 210 177 159 162 160 158 170 170 149
285 277 222 187 199 219 238 256 265 275 276 218 229 242 225 219 179 178 272 262 234 292 296 296 311 291 280 296 293 281 273 265 318 69 270 304 337 298 212 229 268 262 66 35 333 295 292 287 269 263 268 273 287 305 305 297 259 208 228 246 223 199 212 242 253 239 229 226 236 37 120 136 134 128 107 90 111 114 57 294 243 169 160 157 151 154 156 148
269 283 279 246 201 212 236 245 246 259 284 298 266 185 210 243 170 150 227 264 348 293 278 282 301 290 295 329 321 307 309 328 352 338 264 21 316 288 265 263 271 87 81 287 246 237 268 268 267 266 261 266 274 283 293 296 285 251 224 242 252 220 196 221 244 234 117 186 259 51 106 125 122 105 105 107 121 109 115 243 275 199 162 157 149 147 150 149
256 267 276 293 275 219 222 235 238 239 256 272 263 161 209 248 230 179 199 210 343 271 258 232 242 267 305 345 335 334 346 334 333 343 351 358 285 291 305 272 252 129 156 244 217 215 269 270 271 274 266 266 268 268 274 274 274 280 255 230 247 248 210 211 227 224 222 179 116 105 108 111 109 101 110 143 169 128 139 163 319 242 167 156 152 150 152 153
273 278 286 318 313 264 266 331 276 237 235 243 229 225 252 254 249 225 173 195 254 233 290 289 281 297 314 329 329 317 326 324 313 359 340 304 275 302 331 305 282 260 262 270 237 263 301 275 273 280 277 278 277 264 258 254 257 270 264 237 235 247 241 235 227 217 228 198 113 107 104 100 109 125 117 141 147 130 140 134 60 7 185 158 156 155 155 156
294 304 314 329 320 298 302 315 286 245 253 267 251 253 260 256 259 251 132 221 269 38 339 278 299 319 294 311 305 276 312 7 67 122 265 274 278 302 344 313 292 274 275 307 339 111 205 274 278 280 276 270 268 263 249 241 247 262 278 315 334 322 317 296 260 229 241 229 109 104 101 97 108 126 120 130 132 126 140 134 109 104 259 138 137 141 140 139
318 322 317 313 305 306 306 286 266 261 249 238 234 239 236 239 261 273 130 175 282 323 301 289 321 310 272 281 278 277 319 25 169 198 209 228 253 261 211 254 269 278 290 287 283 209 227 276 278 274 275 250 253 307 317 276 259 294 2 10 1 358 11 4 346 3 355 333 113 110 107 109 119 128 127 125 122 125 133 127 119 131 128 84 99 111 110 111
336 325 316 307 284 286 292 272 262 264 250 237 235 226 218 228 244 238 154 172 269 270 283 322 347 294 255 240 252 300 353 333 292 276 250 247 250 221 210 229 258 286 311 287 282 270 256 272 275 285 299 264 250 17 359 329 319 51 24 15 10 11 28 31 27 28 20 7 55 115 111 122 131 135 129 109 98 96 91 88 97 108 107 94 103 116 112 106